Boone Municipal
Saturday 9:55 PM
Temperature36° (46°/23°)
Dew Point28°
Feels Like32°
Relative Humidity75
%
Visibility10
mi
Pressure1020.3
mb
Wind DirectionENE
70°
Wind Speed5
mph
Precipitation Today0.08"

Last 30 Observations

Time PresWx Temp DP Feels RH% Vsby Pressure Ceiling Direction Speed 1h Precip
9:35 PM 36° 30° 31°81
%
10
mi
1020.0
mb
ENE
70°
6
mph
0.00"
9:15 PM 37° 28° 34°70
%
10
mi
1020.3
mb
E
80°
5
mph
0.00"
8:55 PM 37° 30° 34°75
%
10
mi
1020.3
mb
ENE
70°
5
mph
0.00"
8:35 PM 37° 30° 34°75
%
10
mi
1020.3
mb
E
90°
5
mph
0.00"
8:15 PM 39° 30° 36°70
%
10
mi
1020.3
mb
E
90°
5
mph
0.00"
7:55 PM 39° 32° 36°75
%
10
mi
1020.0
mb
E
80°
5
mph
0.00"
7:35 PM 41° 32° 37°70
%
10
mi
1020.0
mb
E
80°
6
mph
0.00"
7:15 PM 45° 30° 41°57
%
10
mi
1020.3
mb
E
90°
6
mph
0.00"
6:55 PM 46° 27° 42°46
%
10
mi
1020.3
mb
E
100°
8
mph
0.00"
6:35 PM 46° 27° 43°46
%
10
mi
1020.0
mb
ESE
110°
7
mph
0.00"
6:15 PM 46° 25° 45°42
%
10
mi
1020.0
mb
ENE
70°
3
mph
(G11)
0.00"
5:55 PM 46° 25° 43°42
%
10
mi
1020.0
mb
ENE
60°
7
mph
0.00"
5:35 PM 46° 27° 43°46
%
10
mi
1020.0
mb
ESE
120°
7
mph
0.00"
5:15 PM 46° 28° 43°49
%
10
mi
1020.0
mb
Variable 6
mph
0.00"
4:55 PM 46° 25° 42°42
%
10
mi
1020.3
mb
E
90°
9
mph
0.00"
4:35 PM 46° 27° 42°46
%
10
mi
1020.3
mb
ENE
60°
9
mph
0.00"
4:15 PM 46° 27° 43°46
%
10
mi
1020.3
mb
ENE
60°
6
mph
0.00"
3:55 PM 46° 28° 43°49
%
10
mi
1020.7
mb
Variable 6
mph
0.00"
3:35 PM 45° 28° 42°53
%
10
mi
1021.0
mb
Variable 5
mph
0.00"
3:15 PM 45° 28° 40°53
%
10
mi
1021.3
mb
E
80°
9
mph
0.00"
2:55 PM 43° 28° 38°57
%
10
mi
1021.7
mb
E
80°
8
mph
0.00"
2:35 PM 43° 28° 37°57
%
10
mi
1022.0
mb
12,000
ft
ENE
70°
9
mph
0.00"
2:15 PM 43° 28° 37°57
%
10
mi
1022.4
mb
12,000
ft
E
90°
10
mph
0.00"
1:55 PM 41° 28° 36°61
%
10
mi
1022.7
mb
12,000
ft
Variable 7
mph
0.00"
1:35 PM 39° 28° 34°65
%
10
mi
1023.0
mb
12,000
ft
Variable 7
mph
0.00"
1:15 PM 37° 30° 31°75
%
10
mi
1023.4
mb
12,000
ft
ENE
60°
9
mph
0.00"
12:55 PM 37° 32° 31°81
%
10
mi
1023.4
mb
12,000
ft
NE
50°
9
mph
0.00"
12:35 PM 36° 34° 29°93
%
10
mi
1023.7
mb
12,000
ft
NE
40°
9
mph
0.00"
12:15 PM 36° 34° 28°93
%
10
mi
1023.7
mb
12,000
ft
NNE
30°
10
mph
0.00"
11:55 AM 34° 34° 25°100
%
10
mi
1024.1
mb
NE
40°
11
mph
Trace